Regional Weather Roundup
Issued by NWS

Home | Current Version | Previous Version | Graphics & Text | Print | Product List | Glossary On
Versions: 1 2 3 4 5 6 7 8 9 10 11 12 13 14 15 16 17 18 19 20 21 22 23 24 25 26 27 28 29 30 31 32 33 34 35 36 37 38 39 40 41 42 43 44 45 46 47 48 49 50
000
ASUS43 KBIS 041201
RWRND

NORTH DAKOTA REGIONAL WEATHER ROUNDUP
NATIONAL WEATHER SERVICE BISMARCK ND
700 AM CDT MON MAY 04 2015

NOTE: "FAIR" INDICATES FEW OR NO CLOUDS BELOW 12,000 FEET WITH NO
SIGNIFICANT WEATHER AND/OR OBSTRUCTIONS TO VISIBILITY.


NDZ001>003-009>011-017-041300-
NORTHWEST NORTH DAKOTA

CITY           SKY/WX    TMP DP  RH WIND       PRES   REMARKS
WILLISTON      CLEAR     32  24  72 N3        30.14R
6HR MIN TEMP:  29; 6HR MAX TEMP:  42; 6HR PCP: TRACE;

MINOT          CLEAR     35  26  69 S5        30.15R
MINOT AFB      CLEAR     29  27  93 S2        30.15R
$$

NDZ018>021-031>035-040>046-041300-
SOUTHWEST NORTH DAKOTA

CITY           SKY/WX    TMP DP  RH WIND       PRES   REMARKS
BISMARCK       CLOUDY    37  28  70 CALM      30.19R
6HR MIN TEMP:  30; 6HR MAX TEMP:  47;

DICKINSON      CLOUDY    33  25  72 SE7       30.15R
GARRISON         N/A     33  29  85 CALM      30.16S
6HR MIN TEMP:  29; 6HR MAX TEMP:  40;

HETTINGER ARPT CLOUDY    40  28  62 E5        30.17R
$$

NDZ004>008-012>016-024-026-027-054-041300-
NORTHEAST NORTH DAKOTA

CITY           SKY/WX    TMP DP  RH WIND       PRES   REMARKS
GRAND FORKS    PTCLDY    34  30  85 NW3       30.18R
GRND FRKS AFB  CLEAR     33  28  84 W2        30.18R
DEVILS LAKE    CLEAR     36  27  69 CALM      30.17R
$$

NDZ022-023-025-028>030-036>039-047>053-041300-
SOUTHEAST NORTH DAKOTA

CITY           SKY/WX    TMP DP  RH WIND       PRES   REMARKS
FARGO          MOCLDY    40  27  59 N3        30.17R
6HR MIN TEMP:  35; 6HR MAX TEMP:  46;

JAMESTOWN      CLOUDY    32  25  75 N7        30.17R
$$



USA.gov is the U.S. government's official web portal to all federal, state and local government web resources and services.